Terug naar catalogus

THOR ABLESTAR DEB

ActiefLEO
NORAD 420·DEBRIS·🇺🇸 United States

Gelanceerd Jun 29, 1961 vanaf Cape Canaveral Space Force Station

Loading…

Volgende Passages (komende 24 uur)

TLE

VersSource: Space-Track

Epoch: Sep 9, 2026, 02:17 UTC

1 00420U 61015EV  26252.09566920  .00000696  00000-0  26855-3 0  9993
2 00420  66.8124  56.9823 0079821 149.8204 210.7532 14.34193425365610

Volg THOR ABLESTAR DEB in realtime met AllMySat

Download on the App Store